[[{"header":{"parameterUnit":"m.s-1","parameterCategory":1,"la1":30.2991,"la2":30.254,"lo1":-89.0895,"lo2":-89.0444,"dy":0.0017,"dx":0.0017,"nx":28,"ny":28,"refTime":"2024-10-02T03:00:00:Z","depth":0,"parameterNumber":2,"parameterNumberName":"U-component_of_WINDS"},"data":[0,0,0,0,0,0,0,0,0,0,0,0,0,0,0,0,0,0,0,0,0,0,0,0,0,0,0,0,0,0,0,0,0,0,0,0,0,0,0,0,0,0,0,0,0,0,0,0,0,0,0,0,0,0,0,0,0,0,-0.8175,-0.8176,0,-0.8222,-0.8223,-0.8224,-0.8174,-0.8172,-0.817,-0.8168,-0.822,-0.8223,-0.8226,0,0,0,0,0,0,0,0,0,0,0,0,0,-0.8045,-0.8048,-0.8175,-0.8176,-0.8177,-0.8222,-0.8223,-0.8224,-0.8174,-0.8172,-0.8169,-0.8167,-0.8219,-0.8223,-0.8226,0,0,0,0,0,0,0,0,0,0,0,0,0,-0.8098,-0.8049,-0.8175,-0.8157,-0.8156,-0.8222,-0.8223,-0.8224,-0.8175,-0.8172,-0.8169,-0.8166,-0.8218,-0.8222,-0.8227,-0.8314,0,0,-0.8241,-0.8243,0,0,0,0,0,0,0,0,-0.8095,-0.8103,-0.8159,-0.8159,-0.8157,-0.8189,-0.8196,-0.8254,-0.8175,-0.8168,-0.8168,-0.8165,-0.8212,-0.8217,-0.8233,-0.8317,-0.8319,-0.8242,-0.8245,-0.8247,-0.8248,0,0,0,0,0,0,0,-0.8092,-0.8101,-0.8194,-0.816,-0.8159,-0.8148,-0.8152,-0.8207,-0.8206,-0.8168,-0.8165,-0.8171,-0.8211,-0.8228,-0.8233,-0.8319,-0.8242,-0.8246,-0.8249,-0.8251,-0.8478,-0.8481,0,0,0,0,0,0,-0.809,-0.8098,-0.8193,-0.8195,-0.8118,-0.8152,-0.8157,-0.8182,-0.8205,-0.8206,-0.8173,-0.8168,-0.8221,-0.8228,-0.8235,-0.834,-0.8247,-0.8251,-0.8254,-0.8475,-0.8479,-0.8482,0,0,0,0,0,0,-0.8087,-0.8098,-0.8191,-0.8146,-0.8157,-0.8158,-0.8186,-0.8185,-0.8201,-0.8209,-0.8209,-0.8191,-0.8219,-0.8228,-0.8295,-0.8341,-0.8253,-0.8258,-0.8471,-0.8476,-0.8481,-0.8549,0,0,0,0,0,0,-0.8083,-0.8098,-0.813,-0.8147,-0.8159,-0.8249,-0.8189,-0.8188,-0.8209,-0.8203,-0.8225,-0.8226,-0.8218,-0.8288,-0.8299,-0.8346,-0.8261,-0.8467,-0.8473,-0.8479,-0.8543,-0.8556,-0.8567,0,0,0,0,0,-0.8079,-0.8149,-0.8132,-0.8144,-0.82,-0.8252,-0.8259,-0.8247,-0.8213,-0.8247,-0.8251,-0.8225,-0.8333,-0.8295,-0.8308,-0.8356,-0.8464,-0.8472,-0.8479,-0.8538,-0.8553,-0.8567,0,0,0,0,0,0,-0.8139,-0.815,-0.8133,-0.8209,-0.823,-0.8243,-0.8285,-0.8264,-0.8296,-0.8289,-0.8274,-0.828,-0.835,-0.8359,-0.8317,-0.8442,-0.8393,-0.8403,-0.8434,-0.8449,-0.8461,-0.8458,-0.8265,0,0,0,0,0,-0.8161,-0.8201,-0.8209,-0.8276,-0.8287,-0.8284,-0.8307,-0.8296,-0.8317,-0.8326,-0.8335,-0.8358,-0.8396,-0.8423,-0.8459,-0.8543,-0.8548,-0.8583,-0.8594,-0.8604,-0.8614,-0.866,-0.8676,-0.8506,-0.8506,-0.8506,0,0,-0.8207,-0.8218,-0.8245,-0.8289,-0.8303,-0.8346,-0.8292,-0.834,-0.8372,-0.8333,-0.8397,-0.8404,-0.8428,-0.8504,-0.8538,-0.8514,-0.8662,-0.8613,-0.8621,-0.8626,-0.8669,-0.8685,-0.87,-0.8511,-0.851,-0.8509,0,0,-0.8314,-0.8326,-0.8383,-0.8399,-0.8421,-0.8418,-0.8432,-0.8449,-0.8452,-0.8515,-0.8487,-0.8525,-0.8592,-0.8611,-0.8629,-0.8741,-0.8719,-0.8753,-0.8817,-0.8862,-0.8876,-0.8888,-0.893,-0.8945,-0.8763,-0.8763,-0.8763,0,-0.8369,-0.8432,-0.8416,-0.8466,-0.8486,-0.8451,-0.851,-0.8526,-0.8559,-0.8575,-0.8547,-0.863,-0.8644,-0.8724,-0.8752,-0.8767,-0.8783,-0.8752,-0.8875,-0.8887,-0.8897,-0.8937,-0.8953,-0.8767,-0.8766,-0.8766,-0.8766,0,-0.85,-0.8544,-0.8588,-0.862,-0.8645,-0.8699,-0.8692,-0.872,-0.8706,-0.8707,-0.8772,-0.8786,-0.8825,-0.8843,-0.8831,-0.8922,-0.8906,-0.8877,-0.8828,-0.8918,-0.8956,-0.8971,-0.8773,-0.8771,-0.877,-0.8769,0,0,-0.8648,-0.8669,-0.8686,-0.8701,-0.8722,-0.8756,-0.8809,-0.8846,-0.887,-0.8894,-0.8939,-0.8996,-0.8969,-0.8989,-0.8978,-0.9018,-0.9108,-0.8983,-0.8984,-0.9008,-0.9211,-0.9235,-0.9253,-0.9092,-0.9095,-0.9097,-0.921,0,-0.8757,-0.8848,-0.8834,-0.8922,-0.8963,-0.893,-0.8975,-0.8994,-0.8996,-0.9032,-0.9033,-0.9075,-0.9035,-0.9047,-0.9084,-0.9089,-0.9149,-0.908,-0.9136,-0.9138,-0.9133,-0.9272,-0.9298,-0.9404,-0.9224,-0.9227,-0.9228,0,-0.8897,-0.8925,-0.9017,-0.9032,-0.9048,-0.909,-0.9123,-0.9157,-0.9177,-0.9176,-0.9198,-0.918,-0.9234,-0.9182,-0.9256,-0.921,-0.9231,-0.9237,-0.9241,-0.9248,-0.9191,-0.9285,-0.9437,-0.9454,-0.9251,-0.9249,-0.9247,0,-0.8998,-0.9059,-0.9122,-0.9135,-0.9153,-0.9183,-0.9193,-0.921,-0.9233,-0.9262,-0.9277,-0.9312,-0.9331,-0.9359,-0.9351,-0.9314,-0.9428,-0.9375,-0.943,-0.9431,-0.9458,-0.9457,-0.9618,-0.9468,-0.9468,-0.9467,-0.9467,0,-0.9123,-0.9181,-0.9168,-0.9207,-0.9271,-0.9254,-0.9319,-0.9324,-0.9339,-0.938,-0.9352,-0.9391,-0.9376,-0.9414,-0.9408,-0.9472,-0.9481,-0.9482,-0.948,-0.9486,-0.9486,-0.9502,-0.9495,-0.9471,-0.9471,-0.947,-0.9469,0,-0.9249,-0.9242,-0.9308,-0.932,-0.9324,-0.9371,-0.9381,-0.9418,-0.9417,-0.9468,-0.9479,-0.9478,-0.9521,-0.9515,-0.9563,-0.9559,-0.9639,-0.9627,-0.9632,-0.963,-0.9686,-0.9682,-0.9865,-0.9889,-0.9721,-0.9723,-0.9724,0,-0.933,-0.9374,-0.9389,-0.9414,-0.9425,-0.9464,-0.9487,-0.9472,-0.9498,-0.9524,-0.9558,-0.9599,-0.963,-0.9701,-0.9705,-0.9742,-0.9732,-0.9794,-0.9738,-0.9743,-0.9736,-0.9734,-0.974,-0.9806,-0.9808,-0.9809,-0.981,0,-0.9475,-0.9469,-0.9503,-0.9536,-0.9564,-0.9589,-0.9612,-0.9634,-0.9621,-0.9651,-0.9694,-0.9718,-0.9767,-0.9808,-0.9842,-0.9853,-0.9831,-0.9827,-0.9843,-0.985,-0.9852,-0.9854,-0.9665,-0.9824,-0.9823,-0.9822,-0.9821,-0.982,-0.9583,-0.962,-0.9637,-0.9676,-0.9691,-0.9713,-0.9748,-0.9751,-0.9786,-0.9824,-0.9812,-0.9862,-0.9881,-0.9925,-0.9939,-0.9978,-0.9956,-0.9977,-0.9983,-0.9989,-0.9997,-0.9844,-0.9984,-0.9984,-0.9983,-0.9983,-0.9983,0,-0.9729,-0.9737,-0.9773,-0.9805,-0.9836,-0.9809,-0.9833,-0.9861,-0.9904,-0.9923,-0.9955,-1.0005,-1.0044,-1.005,-1.0088,-1.0118,-1.0109,-1.0129,-1.0128,-1.0131,-1.0014,-0.9998,-1.0136,-1.0136,-1.0136,-1.0136,-1.0136,-1.0136,-0.9809,-0.9871,-0.9867,-0.9937,-0.9946,-0.9993,-1.0009,-1.0029,-1.0044,-1.0101,-1.0133,-1.0136,-1.0151,-1.0189,-1.0225,-1.0225,-1.0242,-1.0266,-1.0264,-1.0154,-1.0139,-1.0125,-1.011,-1.0269,-1.0269,-1.0378,-1.0379,-1.038]},{"header":{"parameterUnit":"m.s-1","parameterCategory":1,"la1":30.2991,"la2":30.254,"lo1":-89.0895,"lo2":-89.0444,"dy":0.0017,"dx":0.0017,"nx":28,"ny":28,"refTime":"2024-10-02T03:00:00:Z","depth":0,"parameterNumber":3,"parameterNumberName":"V-component_of_WINDS"},"data":[0,0,0,0,0,0,0,0,0,0,0,0,0,0,0,0,0,0,0,0,0,0,0,0,0,0,0,0,0,0,0,0,0,0,0,0,0,0,0,0,0,0,0,0,0,0,0,0,0,0,0,0,0,0,0,0,0,0,-3.9336,-3.9336,0,-3.935,-3.935,-3.935,-3.9268,-3.9266,-3.9263,-3.9261,-3.9274,-3.9277,-3.9279,0,0,0,0,0,0,0,0,0,0,0,0,0,-3.9235,-3.9237,-3.9336,-3.9336,-3.9336,-3.935,-3.935,-3.935,-3.9268,-3.9266,-3.9263,-3.926,-3.9273,-3.9276,-3.9279,0,0,0,0,0,0,0,0,0,0,0,0,0,-3.9267,-3.9238,-3.9336,-3.9297,-3.9294,-3.935,-3.935,-3.935,-3.9269,-3.9266,-3.9262,-3.9259,-3.9272,-3.9276,-3.928,-3.9373,0,0,-3.9291,-3.9293,0,0,0,0,0,0,0,0,-3.9265,-3.9271,-3.9302,-3.93,-3.9296,-3.9304,-3.9319,-3.9358,-3.927,-3.9278,-3.9261,-3.9257,-3.9287,-3.9289,-3.9299,-3.9374,-3.9374,-3.9292,-3.9294,-3.9296,-3.9297,0,0,0,0,0,0,0,-3.9263,-3.927,-3.9341,-3.9303,-3.9299,-3.9278,-3.9279,-3.9326,-3.9302,-3.9277,-3.9271,-3.9274,-3.9284,-3.9296,-3.9299,-3.9375,-3.9292,-3.9295,-3.9297,-3.9299,-3.9526,-3.9529,0,0,0,0,0,0,-3.9266,-3.9268,-3.9341,-3.9342,-3.9272,-3.9283,-3.9283,-3.9305,-3.9301,-3.9297,-3.9277,-3.927,-3.9291,-3.9295,-3.9299,-3.9408,-3.9296,-3.9299,-3.9301,-3.9522,-3.9526,-3.953,0,0,0,0,0,0,-3.9264,-3.9274,-3.934,-3.9303,-3.931,-3.9288,-3.9313,-3.9307,-3.9318,-3.9301,-3.9296,-3.9294,-3.9289,-3.9294,-3.9355,-3.9407,-3.9301,-3.9304,-3.9517,-3.9523,-3.9528,-3.9627,0,0,0,0,0,0,-3.9262,-3.9273,-3.9309,-3.9305,-3.9313,-3.9397,-3.9316,-3.931,-3.9325,-3.9317,-3.9315,-3.9312,-3.9286,-3.935,-3.9359,-3.941,-3.9307,-3.9513,-3.952,-3.9527,-3.9619,-3.9635,-3.9649,0,0,0,0,0,-3.9259,-3.9336,-3.9312,-3.9321,-3.9357,-3.94,-3.9405,-3.9374,-3.933,-3.9365,-3.9354,-3.9312,-3.94,-3.9357,-3.9367,-3.942,-3.9509,-3.9518,-3.9526,-3.9612,-3.9632,-3.9649,0,0,0,0,0,0,-3.9347,-3.9335,-3.9308,-3.9386,-3.9395,-3.9386,-3.943,-3.9396,-3.9417,-3.9408,-3.9368,-3.9369,-3.9437,-3.9434,-3.9387,-3.951,-3.9447,-3.9458,-3.9509,-3.9528,-3.9542,-3.9542,-3.931,0,0,0,0,0,-3.9376,-3.9413,-3.94,-3.947,-3.9476,-3.9453,-3.947,-3.9446,-3.9453,-3.9456,-3.945,-3.9458,-3.9487,-3.9507,-3.9533,-3.9618,-3.9616,-3.9659,-3.9674,-3.9687,-3.9696,-3.974,-3.9759,-3.9558,-3.9558,-3.9558,0,0,-3.9436,-3.9434,-3.9459,-3.9488,-3.9492,-3.953,-3.9456,-3.95,-3.9528,-3.9463,-3.952,-3.9516,-3.9522,-3.9595,-3.9627,-3.9595,-3.9751,-3.9697,-3.9708,-3.971,-3.9751,-3.977,-3.9787,-3.9564,-3.9563,-3.9562,0,0,-3.9564,-3.9566,-3.9625,-3.9631,-3.9637,-3.9621,-3.9635,-3.9632,-3.9626,-3.9684,-3.9636,-3.9667,-3.9719,-3.9725,-3.9735,-3.9865,-3.9827,-3.9875,-3.9954,-3.9997,-4.0013,-4.0027,-4.0072,-4.0089,-3.9885,-3.9885,-3.9885,0,-3.9637,-3.9693,-3.9659,-3.9706,-3.972,-3.9663,-3.9722,-3.9729,-3.9744,-3.9754,-3.9718,-3.9782,-3.9782,-3.9855,-3.9887,-3.9897,-3.9912,-3.9875,-4.0013,-4.0027,-4.0039,-4.0082,-4.01,-3.9891,-3.989,-3.9889,-3.9889,0,-3.9782,-3.9822,-3.9869,-3.9885,-3.9904,-3.9956,-3.993,-3.9953,-3.9927,-3.9914,-3.9973,-3.9971,-3.9996,-4.0011,-3.9986,-4.0081,-4.0061,-4.002,-3.9956,-4.0065,-4.0105,-4.0121,-3.9899,-3.9897,-3.9895,-3.9894,0,0,-3.9967,-3.9964,-3.9981,-3.9988,-3.9991,-4.002,-4.007,-4.0094,-4.0115,-4.0127,-4.0167,-4.0212,-4.0173,-4.0185,-4.016,-4.0198,-4.03,-4.0151,-4.0151,-4.0179,-4.0404,-4.0435,-4.0455,-4.0275,-4.0278,-4.028,-4.0403,0,-4.0092,-4.0177,-4.0148,-4.0234,-4.027,-4.0216,-4.0259,-4.0265,-4.0255,-4.0283,-4.027,-4.0303,-4.025,-4.0256,-4.0292,-4.028,-4.0345,-4.0271,-4.0311,-4.0313,-4.0311,-4.0476,-4.0508,-4.0625,-4.0419,-4.0421,-4.0423,0,-4.0249,-4.0268,-4.0358,-4.0355,-4.0368,-4.0408,-4.0427,-4.0455,-4.046,-4.045,-4.0463,-4.0429,-4.0476,-4.0413,-4.0477,-4.0428,-4.0442,-4.0439,-4.0443,-4.0445,-4.0375,-4.0482,-4.0661,-4.0679,-4.0448,-4.0446,-4.0444,0,-4.0375,-4.0422,-4.0482,-4.0489,-4.0486,-4.0515,-4.0515,-4.0517,-4.0534,-4.055,-4.056,-4.0583,-4.0595,-4.0612,-4.0585,-4.0542,-4.0654,-4.0588,-4.0646,-4.0646,-4.0671,-4.067,-4.0856,-4.0682,-4.0681,-4.0681,-4.0681,0,-4.0517,-4.0574,-4.0538,-4.0575,-4.0637,-4.0602,-4.0664,-4.0658,-4.066,-4.0694,-4.0649,-4.0682,-4.0645,-4.0674,-4.0653,-4.0709,-4.0715,-4.0707,-4.0701,-4.0711,-4.0712,-4.072,-4.0711,-4.0686,-4.0685,-4.0684,-4.0683,0,-4.0668,-4.0646,-4.0707,-4.07,-4.0699,-4.0745,-4.0738,-4.0771,-4.0757,-4.0801,-4.0809,-4.0787,-4.0819,-4.0794,-4.0825,-4.0811,-4.0885,-4.0867,-4.0883,-4.0878,-4.0937,-4.0932,-4.1134,-4.1159,-4.097,-4.0971,-4.0973,0,-4.076,-4.0803,-4.0799,-4.0819,-4.0822,-4.0855,-4.0871,-4.0838,-4.0857,-4.0866,-4.0898,-4.0926,-4.0947,-4.1,-4.0986,-4.101,-4.0992,-4.1061,-4.0995,-4.1004,-4.0993,-4.099,-4.0994,-4.1075,-4.1077,-4.1079,-4.108,0,-4.0926,-4.0913,-4.0938,-4.096,-4.0981,-4.0997,-4.1008,-4.1027,-4.0993,-4.1017,-4.1049,-4.1065,-4.1097,-4.1125,-4.1144,-4.1143,-4.1106,-4.1101,-4.1116,-4.1126,-4.1134,-4.113,-4.0919,-4.1097,-4.1095,-4.1094,-4.1093,-4.1092,-4.105,-4.1085,-4.1088,-4.1118,-4.1123,-4.1135,-4.1166,-4.1155,-4.1182,-4.1205,-4.1184,-4.1223,-4.1226,-4.1247,-4.1251,-4.128,-4.1252,-4.1273,-4.1278,-4.1284,-4.1292,-4.1129,-4.1284,-4.1283,-4.1283,-4.1282,-4.1282,0,-4.1213,-4.1212,-4.124,-4.1258,-4.1281,-4.1245,-4.1256,-4.1277,-4.1312,-4.1318,-4.134,-4.1376,-4.1403,-4.1392,-4.1415,-4.1441,-4.1425,-4.1448,-4.1446,-4.1446,-4.1317,-4.1302,-4.1461,-4.1461,-4.1461,-4.1461,-4.1461,-4.1461,-4.1301,-4.1358,-4.1345,-4.1404,-4.1403,-4.144,-4.145,-4.146,-4.1465,-4.1508,-4.153,-4.1523,-4.1522,-4.1545,-4.1568,-4.1563,-4.1574,-4.1604,-4.1594,-4.1473,-4.1455,-4.1438,-4.1424,-4.1606,-4.1607,-4.172,-4.1721,-4.1722]}]]